| time (UTC) | temp C | wind direction | speed KPH | gust KPH | rain 1hr cm | rain 24hr cm | rain mn cm | humidity % | barometer mb |
| 20260505030307 | 16 | 196 | 1.6 | 11.3 | 0.00 | 0.00 | 0.00 | 56 | 1011.0 |
| 20260505025809 | 16 | 153 | 4.8 | 11.3 | 0.00 | 0.00 | 0.00 | 56 | 1011.1 |
| 20260505025111 | 16 | 215 | 3.2 | 8.0 | 0.00 | 0.00 | 0.00 | 56 | 1010.9 |
| 20260505024542 | 16 | 132 | 1.6 | 8.0 | 0.00 | 0.00 | 0.00 | 56 | 1011.0 |
| 20260505023933 | 16 | 181 | 3.2 | 8.0 | 0.00 | 0.00 | 0.00 | 55 | 1011.0 |
| 20260505023448 | 16 | 142 | 3.2 | 8.0 | 0.00 | 0.00 | 0.00 | 55 | 1010.9 |
| 20260505022901 | 16 | 133 | 1.6 | 9.7 | 0.00 | 0.00 | 0.00 | 54 | 1011.0 |
| 20260505022159 | 16 | 207 | 1.6 | 9.7 | 0.00 | 0.00 | 0.00 | 54 | 1011.1 |
| 20260505021719 | 16 | 192 | 1.6 | 4.8 | 0.00 | 0.00 | 0.00 | 54 | 1011.0 |
| 20260505021129 | 17 | 159 | 0.0 | 3.2 | 0.00 | 0.00 | 0.00 | 53 | 1011.1 |
| 20260505020537 | 17 | 120 | 1.6 | 3.2 | 0.00 | 0.00 | 0.00 | 52 | 1011.0 |
| 20260505020057 | 17 | 140 | 0.0 | 3.2 | 0.00 | 0.00 | 0.00 | 52 | 1011.0 |
| 20260505015513 | 17 | 150 | 0.0 | 3.2 | 0.00 | 0.00 | 0.00 | 51 | 1010.9 |
| 20260505014918 | 17 | 110 | 1.6 | 3.2 | 0.00 | 0.00 | 0.00 | 49 | 1010.7 |
| 20260505014325 | 18 | 113 | 1.6 | 6.4 | 0.00 | 0.00 | 0.00 | 50 | 1010.6 |
| 20260505013740 | 18 | 185 | 1.6 | 6.4 | 0.00 | 0.00 | 0.00 | 49 | 1010.5 |
| 20260505013258 | 18 | 169 | 1.6 | 8.0 | 0.00 | 0.00 | 0.00 | 49 | 1010.5 |
| 20260505012556 | 18 | 150 | 3.2 | 11.3 | 0.00 | 0.00 | 0.00 | 47 | 1010.3 |
| 20260505011854 | 18 | 190 | 1.6 | 11.3 | 0.00 | 0.00 | 0.00 | 48 | 1010.3 |
| 20260505011313 | 18 | 170 | 4.8 | 11.3 | 0.00 | 0.00 | 0.00 | 47 | 1010.2 |
| 20260505010821 | 18 | 176 | 4.8 | 11.3 | 0.00 | 0.00 | 0.00 | 47 | 1010.2 |
| 20260505010128 | 18 | 221 | 4.8 | 9.7 | 0.00 | 0.00 | 0.00 | 46 | 1010.2 |
| 20260505005426 | 18 | 167 | 3.2 | 12.9 | 0.00 | 0.00 | 0.00 | 46 | 1010.3 |
| 20260505004836 | 18 | 204 | 4.8 | 12.9 | 0.00 | 0.00 | 0.00 | 46 | 1010.2 |
| 20260505004246 | 18 | 186 | 4.8 | 12.9 | 0.00 | 0.00 | 0.00 | 45 | 1010.3 |
| 20260505003807 | 18 | 165 | 4.8 | 12.9 | 0.00 | 0.00 | 0.00 | 45 | 1010.3 |
| 20260505003234 | 19 | 196 | 4.8 | 9.7 | 0.00 | 0.00 | 0.00 | 45 | 1010.3 |
| 20260505002644 | 19 | 141 | 3.2 | 12.9 | 0.00 | 0.00 | 0.00 | 44 | 1010.3 |
| 20260505002053 | 19 | 209 | 4.8 | 12.9 | 0.00 | 0.00 | 0.00 | 44 | 1010.2 |
| 20260505001504 | 19 | 201 | 3.2 | 14.5 | 0.00 | 0.00 | 0.00 | 44 | 1010.2 |
| 20260505001024 | 20 | 161 | 4.8 | 14.5 | 0.00 | 0.00 | 0.00 | 42 | 1010.2 |
| 20260505000432 | 20 | 209 | 3.2 | 12.9 | 0.00 | 0.00 | 0.00 | 43 | 1010.1 |
| 20260504235844 | 20 | 183 | 8.0 | 17.7 | 0.00 | 0.00 | 0.00 | 42 | 1010.1 |
| 20260504235254 | 20 | 152 | 6.4 | 17.7 | 0.00 | 0.00 | 0.00 | 41 | 1010.1 |
| 20260504234702 | 20 | 211 | 6.4 | 12.9 | 0.00 | 0.00 | 0.00 | 42 | 1010.1 |
| 20260504234224 | 20 | 192 | 4.8 | 12.9 | 0.00 | 0.00 | 0.00 | 41 | 1010.1 |
| 20260504233632 | 21 | 211 | 4.8 | 12.9 | 0.00 | 0.00 | 0.00 | 41 | 1010.1 |
| 20260504233154 | 21 | 207 | 4.8 | 19.3 | 0.00 | 0.00 | 0.00 | 40 | 1010.1 |
| 20260504232709 | 21 | 165 | 8.0 | 19.3 | 0.00 | 0.00 | 0.00 | 39 | 1010.1 |
| 20260504232013 | 21 | 182 | 6.4 | 16.1 | 0.00 | 0.00 | 0.00 | 39 | 1010.1 |
| 20260504231545 | 21 | 178 | 8.0 | 17.7 | 0.00 | 0.00 | 0.00 | 38 | 1010.1 |
| 20260504230942 | 21 | 192 | 6.4 | 17.7 | 0.00 | 0.00 | 0.00 | 39 | 1010.2 |
| 20260504230348 | 21 | 207 | 6.4 | 16.1 | 0.00 | 0.00 | 0.00 | 40 | 1010.2 |
| 20260504225801 | 21 | 209 | 8.0 | 17.7 | 0.00 | 0.00 | 0.00 | 38 | 1010.2 |
| 20260504225319 | 22 | 194 | 9.7 | 20.9 | 0.00 | 0.00 | 0.00 | 38 | 1010.2 |
| 20260504224729 | 22 | 204 | 8.0 | 27.4 | 0.00 | 0.00 | 0.00 | 38 | 1010.2 |
| 20260504224245 | 22 | 290 | 11.3 | 25.7 | 0.00 | 0.00 | 0.00 | 37 | 1010.1 |
| 20260504223702 | 22 | 229 | 8.0 | 20.9 | 0.00 | 0.00 | 0.00 | 38 | 1010.2 |
| 20260504223111 | 22 | 184 | 8.0 | 17.7 | 0.00 | 0.00 | 0.00 | 39 | 1010.3 |
| 20260504222631 | 22 | 194 | 9.7 | 17.7 | 0.00 | 0.00 | 0.00 | 37 | 1010.1 |
| 20260504222149 | 22 | 180 | 11.3 | 17.7 | 0.00 | 0.00 | 0.00 | 38 | 1010.1 |
| 20260504221606 | 22 | 212 | 8.0 | 17.7 | 0.00 | 0.00 | 0.00 | 38 | 1010.1 |
| 20260504221114 | 22 | 184 | 8.0 | 24.1 | 0.00 | 0.00 | 0.00 | 37 | 1010.2 |
| 20260504220507 | 22 | 213 | 11.3 | 24.1 | 0.00 | 0.00 | 0.00 | 38 | 1010.2 |
| 20260504220023 | 22 | 162 | 12.9 | 24.1 | 0.00 | 0.00 | 0.00 | 36 | 1010.0 |
| 20260504215606 | 22 | 209 | 11.3 | 16.1 | 0.00 | 0.00 | 0.00 | 38 | 1010.2 |
| 20260504215007 | 22 | 226 | 4.8 | 17.7 | 0.00 | 0.00 | 0.00 | 39 | 1010.1 |
| 20260504214532 | 22 | 178 | 8.0 | 19.3 | 0.00 | 0.00 | 0.00 | 38 | 1010.1 |
| 20260504214019 | 22 | 216 | 11.3 | 17.7 | 0.00 | 0.00 | 0.00 | 37 | 1010.2 |
| 20260504213511 | 22 | 215 | 11.3 | 22.5 | 0.00 | 0.00 | 0.00 | 37 | 1010.2 |
| 20260504213011 | 22 | 221 | 8.0 | 22.5 | 0.00 | 0.00 | 0.00 | 39 | 1010.2 |
| 20260504212506 | 22 | 227 | 9.7 | 24.1 | 0.00 | 0.00 | 0.00 | 37 | 1010.3 |
| 20260504212008 | 22 | 196 | 11.3 | 24.1 | 0.00 | 0.00 | 0.00 | 38 | 1010.2 |
| 20260504211511 | 22 | 198 | 9.7 | 24.1 | 0.00 | 0.00 | 0.00 | 39 | 1010.2 |
| 20260504211004 | 22 | 216 | 12.9 | 29.0 | 0.00 | 0.00 | 0.00 | 38 | 1010.2 |
| 20260504210511 | 22 | 180 | 12.9 | 29.0 | 0.00 | 0.00 | 0.00 | 39 | 1010.2 |
| 20260504210021 | 22 | 195 | 14.5 | 25.7 | 0.00 | 0.00 | 0.00 | 39 | 1010.2 |
| 20260504205504 | 22 | 225 | 6.4 | 20.9 | 0.00 | 0.00 | 0.00 | 38 | 1010.2 |
| 20260504205004 | 22 | 205 | 12.9 | 20.9 | 0.00 | 0.00 | 0.00 | 38 | 1010.2 |
| 20260504204510 | 22 | 244 | 9.7 | 29.0 | 0.00 | 0.00 | 0.00 | 38 | 1010.2 |
| 20260504204004 | 22 | 196 | 11.3 | 29.0 | 0.00 | 0.00 | 0.00 | 38 | 1010.2 |
| 20260504203505 | 22 | 129 | 11.3 | 25.7 | 0.00 | 0.00 | 0.00 | 38 | 1010.3 |
| 20260504203016 | 22 | 166 | 11.3 | 20.9 | 0.00 | 0.00 | 0.00 | 37 | 1010.2 |
| 20260504202511 | 22 | 217 | 4.8 | 20.9 | 0.00 | 0.00 | 0.00 | 40 | 1010.4 |
| 20260504202003 | 22 | 221 | 11.3 | 20.9 | 0.00 | 0.00 | 0.00 | 38 | 1010.5 |
| 20260504201524 | 22 | 194 | 9.7 | 20.9 | 0.00 | 0.00 | 0.00 | 38 | 1010.5 |
| 20260504201005 | 22 | 257 | 9.7 | 22.5 | 0.00 | 0.00 | 0.00 | 40 | 1010.6 |
| 20260504200506 | 22 | 224 | 14.5 | 24.1 | 0.00 | 0.00 | 0.00 | 38 | 1010.6 |
| 20260504200028 | 22 | 213 | 12.9 | 24.1 | 0.00 | 0.00 | 0.00 | 38 | 1010.7 |
| 20260504195507 | 22 | 273 | 4.8 | 24.1 | 0.00 | 0.00 | 0.00 | 39 | 1010.7 |
| 20260504195003 | 22 | 219 | 14.5 | 24.1 | 0.00 | 0.00 | 0.00 | 38 | 1010.8 |
| 20260504194512 | 22 | 217 | 9.7 | 20.9 | 0.00 | 0.00 | 0.00 | 38 | 1011.0 |
| 20260504194005 | 22 | 200 | 9.7 | 20.9 | 0.00 | 0.00 | 0.00 | 36 | 1011.1 |
| 20260504193508 | 22 | 290 | 6.4 | 17.7 | 0.00 | 0.00 | 0.00 | 40 | 1011.1 |
| 20260504193028 | 22 | 215 | 8.0 | 17.7 | 0.00 | 0.00 | 0.00 | 39 | 1011.2 |
| 20260504192510 | 22 | 137 | 4.8 | 14.5 | 0.00 | 0.00 | 0.00 | 38 | 1011.2 |
| 20260504192010 | 22 | 205 | 4.8 | 12.9 | 0.00 | 0.00 | 0.00 | 39 | 1011.3 |
| 20260504191516 | 22 | 244 | 6.4 | 17.7 | 0.00 | 0.00 | 0.00 | 39 | 1011.4 |
| 20260504191006 | 22 | 240 | 8.0 | 17.7 | 0.00 | 0.00 | 0.00 | 37 | 1011.6 |
| 20260504190511 | 22 | 220 | 12.9 | 17.7 | 0.00 | 0.00 | 0.00 | 40 | 1011.6 |
| 20260504190030 | 21 | 227 | 8.0 | 17.7 | 0.00 | 0.00 | 0.00 | 40 | 1011.7 |
| 20260504185504 | 21 | 165 | 9.7 | 17.7 | 0.00 | 0.00 | 0.00 | 40 | 1011.8 |
| 20260504185009 | 21 | 246 | 6.4 | 24.1 | 0.00 | 0.00 | 0.00 | 39 | 1011.9 |
| 20260504184518 | 21 | 223 | 14.5 | 24.1 | 0.00 | 0.00 | 0.00 | 40 | 1012.0 |
| 20260504184009 | 21 | 222 | 9.7 | 17.7 | 0.00 | 0.00 | 0.00 | 40 | 1012.1 |
| 20260504183513 | 21 | 206 | 9.7 | 22.5 | 0.00 | 0.00 | 0.00 | 40 | 1012.1 |
| 20260504183014 | 21 | 203 | 11.3 | 22.5 | 0.00 | 0.00 | 0.00 | 39 | 1012.2 |
| 20260504182508 | 21 | 206 | 8.0 | 16.1 | 0.00 | 0.00 | 0.00 | 41 | 1012.3 |
| 20260504182011 | 21 | 315 | 6.4 | 22.5 | 0.00 | 0.00 | 0.00 | 39 | 1012.3 |
| 20260504181522 | 21 | 289 | 9.7 | 22.5 | 0.00 | 0.00 | 0.00 | 39 | 1012.3 |
| 20260504181010 | 21 | 232 | 9.7 | 19.3 | 0.00 | 0.00 | 0.00 | 40 | 1012.4 |
| 20260504180508 | 21 | 224 | 9.7 | 19.3 | 0.00 | 0.00 | 0.00 | 38 | 1012.4 |
| 20260504180011 | 21 | 248 | 6.4 | 19.3 | 0.00 | 0.00 | 0.00 | 38 | 1012.5 |
| 20260504175502 | 21 | 242 | 9.7 | 19.3 | 0.00 | 0.00 | 0.00 | 38 | 1012.3 |
| 20260504175006 | 21 | 230 | 11.3 | 17.7 | 0.00 | 0.00 | 0.00 | 40 | 1012.4 |
| 20260504174518 | 20 | 254 | 6.4 | 19.3 | 0.00 | 0.00 | 0.00 | 36 | 1012.5 |
| 20260504174007 | 20 | 231 | 9.7 | 24.1 | 0.00 | 0.00 | 0.00 | 41 | 1012.6 |
| 20260504173508 | 20 | 202 | 14.5 | 24.1 | 0.00 | 0.00 | 0.00 | 39 | 1012.7 |
| 20260504173029 | 20 | 215 | 6.4 | 24.1 | 0.00 | 0.00 | 0.00 | 41 | 1012.6 |
| 20260504172510 | 20 | 209 | 11.3 | 22.5 | 0.00 | 0.00 | 0.00 | 39 | 1012.6 |
| 20260504172015 | 20 | 188 | 14.5 | 19.3 | 0.00 | 0.00 | 0.00 | 42 | 1012.9 |
| 20260504171530 | 20 | 248 | 6.4 | 32.2 | 0.00 | 0.00 | 0.00 | 39 | 1013.0 |
| 20260504171012 | 20 | 238 | 6.4 | 32.2 | 0.00 | 0.00 | 0.00 | 41 | 1013.0 |
| 20260504170506 | 20 | 223 | 9.7 | 19.3 | 0.00 | 0.00 | 0.00 | 43 | 1012.9 |
| 20260504151003 | 18 | 225 | 6.4 | 16.1 | 0.00 | 0.00 | 0.00 | 48 | 1014.3 |
| 20260504150504 | 17 | 196 | 9.7 | 16.1 | 0.00 | 0.00 | 0.00 | 44 | 1014.3 |